[[{"header":{"parameterUnit":"m.s-1","parameterCategory":2,"la1":30.2991,"la2":30.254,"lo1":-89.0895,"lo2":-89.0444,"dy":0.0017,"dx":0.0017,"nx":28,"ny":28,"refTime":"2024-04-14T03:00:00:Z","depth":"0","parameterNumber":2,"parameterNumberName":"U-component_of_CURRENTS"},"data":[0,0,0,0,0,0,0,0,0,0,0,0,0,0,0,0,0,0,0,0,0,0,0,0,0,0,0,0,0,0,0,0,0,0,0,0,0,0,0,0,0,0,0,0,0,0,0,0,0,0,0,0,0,0,0,0,0,0,0.2679,0.2679,0,0.2717,0.2718,0.2718,0.2706,0.2705,0.2704,0.2704,0.2739,0.274,0.2742,0,0,0,0,0,0,0,0,0,0,0,0,0,0.2619,0.262,0.2679,0.2679,0.268,0.2717,0.2718,0.2718,0.2706,0.2705,0.2704,0.2703,0.2738,0.274,0.2742,0,0,0,0,0,0,0,0,0,0,0,0,0,0.2649,0.262,0.2678,0.2679,0.2679,0.2717,0.2718,0.2718,0.2706,0.2705,0.2704,0.2703,0.2738,0.274,0.2742,0.2779,0,0,0.275,0.2751,0,0,0,0,0,0,0,0,0.2647,0.2651,0.2678,0.2679,0.268,0.2707,0.271,0.2739,0.2706,0.2695,0.2704,0.2702,0.2729,0.2732,0.274,0.2781,0.2782,0.275,0.2751,0.2752,0.2753,0,0,0,0,0,0,0,0.2645,0.265,0.2693,0.2679,0.268,0.2686,0.2689,0.2715,0.2717,0.2696,0.2695,0.2702,0.2729,0.2738,0.2741,0.2783,0.275,0.2752,0.2753,0.2754,0.2887,0.2889,0,0,0,0,0,0,0.2643,0.2648,0.2692,0.2694,0.2662,0.2688,0.2691,0.2698,0.2717,0.2719,0.2703,0.2701,0.2735,0.2738,0.2742,0.2817,0.2752,0.2755,0.2756,0.2885,0.2887,0.289,0,0,0,0,0,0,0.2641,0.2646,0.269,0.2672,0.2678,0.269,0.2698,0.27,0.2711,0.2722,0.2723,0.2713,0.2734,0.2739,0.2773,0.2817,0.2756,0.2758,0.2882,0.2886,0.2888,0.2946,0,0,0,0,0,0,0.264,0.2646,0.2655,0.2672,0.2679,0.2722,0.27,0.2701,0.2717,0.2715,0.2732,0.2733,0.2733,0.277,0.2776,0.2819,0.276,0.288,0.2884,0.2888,0.2942,0.2951,0.2959,0,0,0,0,0,0.2637,0.2651,0.2656,0.2661,0.269,0.2723,0.2728,0.2731,0.2719,0.2735,0.2742,0.2733,0.2799,0.2773,0.278,0.2825,0.2878,0.2883,0.2887,0.2938,0.2949,0.2959,0,0,0,0,0,0,0.2625,0.2652,0.2657,0.2677,0.2704,0.2722,0.2735,0.2739,0.2758,0.2753,0.2755,0.2759,0.281,0.281,0.2781,0.2876,0.284,0.2846,0.2876,0.2887,0.2895,0.2889,0.2762,0,0,0,0,0,0.263,0.2648,0.2676,0.2693,0.2707,0.2724,0.2738,0.2744,0.2761,0.2767,0.2781,0.2801,0.2837,0.2852,0.288,0.2927,0.2966,0.2963,0.2971,0.2978,0.2979,0.3054,0.307,0.2905,0.2905,0.2905,0,0,0.2625,0.2646,0.2653,0.2692,0.2709,0.2752,0.2729,0.2756,0.2792,0.2771,0.2819,0.2834,0.2857,0.2912,0.2936,0.2914,0.3061,0.2984,0.299,0.2987,0.3061,0.3077,0.3091,0.2908,0.2908,0.2907,0,0,0.2641,0.265,0.268,0.2712,0.275,0.2768,0.2779,0.2809,0.2822,0.287,0.2871,0.2903,0.2954,0.2978,0.2998,0.3071,0.3106,0.3089,0.3125,0.3199,0.3212,0.3225,0.3356,0.338,0.309,0.309,0.309,0,0.2637,0.2683,0.2693,0.2741,0.2769,0.278,0.2825,0.2852,0.289,0.2903,0.2894,0.2973,0.2988,0.3057,0.3083,0.3091,0.3157,0.3081,0.321,0.3222,0.3234,0.3365,0.339,0.3094,0.3093,0.3093,0.3093,0,0.2689,0.2729,0.2749,0.2815,0.2845,0.2883,0.2922,0.2948,0.2961,0.2985,0.3044,0.3067,0.3109,0.313,0.3129,0.3224,0.3257,0.3214,0.318,0.3254,0.3388,0.3414,0.3098,0.3097,0.3096,0.3095,0,0,0.2673,0.2767,0.2776,0.2813,0.2886,0.2909,0.297,0.3021,0.3055,0.3093,0.3148,0.32,0.32,0.3222,0.3233,0.3289,0.3447,0.329,0.3292,0.3417,0.3671,0.3644,0.367,0.3427,0.343,0.3433,0.3753,0,0.2714,0.2803,0.2844,0.2922,0.2967,0.2996,0.3051,0.3094,0.3128,0.3188,0.3212,0.3279,0.3243,0.3277,0.3326,0.3421,0.3507,0.3368,0.3583,0.3591,0.3553,0.3694,0.3512,0.3776,0.3778,0.3782,0.3785,0,0.2765,0.2812,0.2894,0.2969,0.2989,0.3036,0.3097,0.3153,0.323,0.3263,0.3314,0.3346,0.3454,0.3399,0.3598,0.3517,0.3601,0.3662,0.3675,0.3637,0.3608,0.3691,0.3821,0.3702,0.3824,0.3821,0.3818,0,0.2751,0.2849,0.2907,0.2938,0.3026,0.305,0.3094,0.3164,0.3224,0.3323,0.3393,0.3481,0.3582,0.3666,0.3788,0.3717,0.4015,0.3932,0.3997,0.3999,0.3877,0.3861,0.3901,0.4071,0.407,0.407,0.4069,0,0.2789,0.2832,0.2899,0.2931,0.2991,0.3043,0.3119,0.3171,0.3275,0.3375,0.3434,0.3556,0.3653,0.3814,0.3873,0.4048,0.4099,0.405,0.408,0.3899,0.3882,0.3794,0.374,0.4082,0.4079,0.4077,0.4075,0,0.2789,0.2836,0.2903,0.2974,0.2994,0.3036,0.3146,0.3203,0.3309,0.3452,0.3503,0.3686,0.3906,0.4011,0.4214,0.4199,0.4223,0.4371,0.4184,0.4183,0.4057,0.4015,0.3994,0.3883,0.4498,0.4499,0.45,0,0.2801,0.2837,0.2921,0.2955,0.2991,0.3058,0.3108,0.321,0.3288,0.3537,0.3616,0.3872,0.4027,0.433,0.4369,0.4509,0.4335,0.4403,0.4191,0.4069,0.4045,0.3867,0.376,0.4103,0.4101,0.4099,0.4098,0,0.282,0.2854,0.2904,0.2975,0.3024,0.3083,0.3163,0.3233,0.338,0.3512,0.3727,0.3875,0.4167,0.4228,0.44,0.4437,0.4164,0.4368,0.4272,0.3778,0.3556,0.3455,0.3926,0.4081,0.4083,0.4084,0.4085,0.4085,0.283,0.2866,0.2933,0.2995,0.3047,0.3091,0.3118,0.3217,0.3335,0.3501,0.3715,0.3863,0.4016,0.4223,0.4236,0.4123,0.4115,0.3973,0.3964,0.3818,0.3581,0.4047,0.4187,0.4189,0.4191,0.4193,0.4194,0,0.2838,0.288,0.2945,0.3001,0.3032,0.3068,0.3138,0.3142,0.3234,0.3407,0.3561,0.3689,0.3758,0.3831,0.3836,0.372,0.3506,0.3624,0.3303,0.324,0.3699,0.3544,0.3507,0.3508,0.3508,0.3508,0.3508,0.3508,0.2844,0.2898,0.2927,0.2963,0.2993,0.2979,0.2994,0.3002,0.3071,0.3143,0.3192,0.3307,0.3503,0.3585,0.3475,0.3392,0.3125,0.3005,0.3022,0.3311,0.3339,0.3366,0.3204,0.3097,0.3097,0.2371,0.2366,0.2362]},{"header":{"parameterUnit":"m.s-1","parameterCategory":2,"la1":30.2991,"la2":30.254,"lo1":-89.0895,"lo2":-89.0444,"dy":0.0017,"dx":0.0017,"nx":28,"ny":28,"refTime":"2024-04-14T03:00:00:Z","depth":"0","parameterNumber":3,"parameterNumberName":"V-component_of_CURRENTS"},"data":[0,0,0,0,0,0,0,0,0,0,0,0,0,0,0,0,0,0,0,0,0,0,0,0,0,0,0,0,0,0,0,0,0,0,0,0,0,0,0,0,0,0,0,0,0,0,0,0,0,0,0,0,0,0,0,0,0,0,0.008,0.008,0,0.0021,0.002,0.0019,-0.0031,-0.0032,-0.0032,-0.0032,-0.0133,-0.0136,-0.0138,0,0,0,0,0,0,0,0,0,0,0,0,0,0.012,0.012,0.0081,0.008,0.0079,0.0021,0.002,0.0019,-0.0031,-0.0032,-0.0032,-0.0033,-0.0133,-0.0135,-0.0138,0,0,0,0,0,0,0,0,0,0,0,0,0,0.0084,0.012,0.0081,0.0049,0.0046,0.0021,0.002,0.0019,-0.0031,-0.0032,-0.0032,-0.0033,-0.0132,-0.0135,-0.0139,-0.0151,0,0,-0.015,-0.0151,0,0,0,0,0,0,0,0,0.0086,0.0082,0.0054,0.0051,0.0048,0.0004,-0.0003,-0.0039,-0.0031,-0.0005,-0.0032,-0.0033,-0.0089,-0.0096,-0.0109,-0.0156,-0.016,-0.015,-0.0152,-0.0154,-0.0155,0,0,0,0,0,0,0,0.0089,0.0084,0.0054,0.0054,0.005,0.0028,0.0022,-0.001,-0.0046,-0.0007,-0.001,-0.0013,-0.0092,-0.0106,-0.0112,-0.0161,-0.015,-0.0153,-0.0155,-0.0157,-0.0256,-0.0257,0,0,0,0,0,0,0.0103,0.0087,0.0056,0.0053,0.0069,0.0028,0.0021,0.0016,-0.0045,-0.0054,-0.0012,-0.0015,-0.01,-0.0108,-0.0116,-0.0162,-0.0154,-0.0157,-0.0159,-0.0256,-0.0257,-0.0257,0,0,0,0,0,0,0.0104,0.0101,0.0059,0.007,0.0064,0.0028,0.0023,0.0015,0.0003,-0.0048,-0.0058,-0.0017,-0.01,-0.0111,-0.0146,-0.0165,-0.0159,-0.0162,-0.0255,-0.0256,-0.0257,-0.0236,0,0,0,0,0,0,0.0105,0.0101,0.0105,0.0072,0.0064,0.0051,0.0023,0.0015,0.0003,-0.0001,-0.0055,-0.0065,-0.0101,-0.0141,-0.015,-0.017,-0.0165,-0.0255,-0.0256,-0.0257,-0.0236,-0.0236,-0.0236,0,0,0,0,0,0.0107,0.0117,0.0105,0.0101,0.0069,0.0052,0.0046,0.0016,0.0004,0.0002,-0.0039,-0.0063,-0.0154,-0.0144,-0.0155,-0.0176,-0.0254,-0.0255,-0.0256,-0.0236,-0.0236,-0.0236,0,0,0,0,0,0,0.0138,0.0112,0.0098,0.01,0.008,0.0044,0.0044,0.0023,-0.001,-0.0015,-0.0065,-0.0078,-0.0121,-0.0145,-0.0133,-0.0208,-0.021,-0.0213,-0.0191,-0.0191,-0.0191,-0.0158,-0.0168,0,0,0,0,0,0.0147,0.0146,0.0117,0.012,0.0113,0.0079,0.007,0.005,0.0017,0.0003,-0.0037,-0.0084,-0.0134,-0.0157,-0.0198,-0.0231,-0.0219,-0.0254,-0.0253,-0.0253,-0.0234,-0.0233,-0.023,-0.0261,-0.0261,-0.0261,0,0,0.0159,0.0147,0.0146,0.0126,0.0109,0.0095,0.0072,0.0063,0.0044,-0.0003,-0.0038,-0.0082,-0.0141,-0.0187,-0.0208,-0.021,-0.0237,-0.0255,-0.0254,-0.0235,-0.0234,-0.023,-0.0227,-0.0262,-0.0261,-0.0261,0,0,0.0183,0.0174,0.0178,0.0161,0.0141,0.0118,0.0119,0.0084,0.0062,0.0028,-0.0021,-0.0068,-0.0131,-0.0184,-0.0218,-0.0238,-0.0236,-0.0257,-0.0232,-0.0232,-0.0229,-0.0226,-0.0194,-0.0188,-0.0257,-0.0257,-0.0257,0,0.0198,0.0194,0.0178,0.0172,0.0161,0.013,0.0125,0.0097,0.0053,0.0041,0.0023,-0.0069,-0.0132,-0.0188,-0.0211,-0.0239,-0.0218,-0.0229,-0.0229,-0.0226,-0.0223,-0.0192,-0.0186,-0.0257,-0.0257,-0.0257,-0.0257,0,0.0217,0.0209,0.0213,0.019,0.018,0.0172,0.0135,0.012,0.0093,0.0065,0.0022,-0.0051,-0.0095,-0.0144,-0.0192,-0.0217,-0.02,-0.0227,-0.0223,-0.0218,-0.0186,-0.018,-0.0255,-0.0256,-0.0256,-0.0256,0,0,0.0255,0.0229,0.0229,0.0224,0.0187,0.0186,0.0158,0.0132,0.0146,0.0082,0.0099,-0.0033,-0.0044,-0.0083,-0.0144,-0.0169,-0.0158,-0.0188,-0.0188,-0.0143,-0.0118,-0.012,-0.0114,-0.0176,-0.0176,-0.0175,-0.0098,0,0.0269,0.0268,0.0247,0.0243,0.0239,0.0206,0.0196,0.0172,0.0157,0.017,0.0091,0.0086,-0.0028,-0.0024,-0.0078,-0.0123,-0.0142,-0.0174,-0.014,-0.0138,-0.0131,-0.0108,-0.0126,-0.006,-0.0092,-0.0091,-0.0091,0,0.0288,0.0285,0.0285,0.028,0.028,0.0281,0.0291,0.0282,0.0276,0.0276,0.025,0.0222,0.0168,0.0094,0.0011,0.0006,-0.0054,-0.0099,-0.0098,-0.0099,-0.013,-0.0074,-0.0048,-0.0249,-0.0081,-0.0082,-0.0083,0,0.0327,0.0313,0.032,0.0311,0.03,0.0313,0.0321,0.0321,0.0367,0.0379,0.0452,0.0356,0.0393,0.0268,0.0154,0.01,0.0104,0.002,-0.0037,-0.0037,-0.0044,-0.0046,-0.0198,-0.0024,-0.0024,-0.0024,-0.0024,0,0.0347,0.0354,0.0349,0.0353,0.0407,0.0377,0.0461,0.0455,0.0517,0.0635,0.0536,0.0647,0.0447,0.0422,0.0248,0.0151,0.018,-0.001,-0.0017,-0.0038,-0.004,-0.021,-0.0312,-0.0021,-0.0022,-0.0023,-0.0023,0,0.0396,0.0372,0.0402,0.0411,0.0428,0.0482,0.0588,0.0666,0.07,0.087,0.0903,0.0909,0.0882,0.0677,0.0534,0.0335,0.0095,0.0153,0.0157,0.0146,-0.0147,-0.0246,-0.035,-0.0427,0.0089,0.0089,0.0089,0,0.0421,0.0434,0.0478,0.0539,0.0558,0.0643,0.0725,0.0761,0.0879,0.1063,0.1178,0.1211,0.1285,0.1056,0.0696,0.0412,0.019,0.0196,0.0048,-0.0146,-0.0261,-0.0345,-0.0409,0.0056,0.0056,0.0056,0.0056,0,0.0497,0.0515,0.0556,0.0675,0.0768,0.0886,0.1015,0.1134,0.1238,0.1401,0.1639,0.1721,0.1517,0.1245,0.0823,0.0581,0.0045,0.0187,-0.0022,-0.0299,-0.0389,-0.047,0.0007,0.0057,0.0057,0.0057,0.0057,0.0057,0.0589,0.0652,0.0723,0.0844,0.0959,0.1136,0.1262,0.1436,0.1658,0.1917,0.197,0.2103,0.1658,0.1088,0.0766,0.0085,0.0086,-0.0162,-0.0257,-0.0317,-0.0432,0.0062,0.0096,0.0096,0.0096,0.0096,0.0096,0,0.0713,0.0782,0.09,0.1047,0.12,0.1229,0.1462,0.1613,0.1904,0.2121,0.2315,0.2124,0.1602,0.1001,0.0119,-0.0308,-0.0484,-0.055,-0.0707,-0.0746,-0.0313,-0.0361,-0.0415,-0.0414,-0.0414,-0.0414,-0.0414,-0.0414,0.0793,0.0922,0.0972,0.1232,0.1345,0.1552,0.1691,0.1926,0.21,0.2366,0.2399,0.2379,0.1891,0.044,-0.0562,-0.0792,-0.1063,-0.1113,-0.1233,-0.0997,-0.097,-0.0944,-0.1019,-0.1209,-0.121,-0.1648,-0.1653,-0.1656]}],[{"header":{"parameterUnit":"m.s-1","parameterCategory":2,"la1":30.2991,"la2":30.254,"lo1":-89.0895,"lo2":-89.0444,"dy":0.0017,"dx":0.0017,"nx":28,"ny":28,"refTime":"2024-04-14T03:00:00:Z","depth":"2","parameterNumber":2,"parameterNumberName":"U-component_of_CURRENTS"},"data":[0,0,0,0,0,0,0,0,0,0,0,0,0,0,0,0,0,0,0,0,0,0,0,0,0,0,0,0,0,0,0,0,0,0,0,0,0,0,0,0,0,0,0,0,0,0,0,0,0,0,0,0,0,0,0,0,0,0,0.2278,0.2278,0,0.2297,0.2297,0.2298,0.232,0.232,0.232,0.232,0.2353,0.2354,0.2354,0,0,0,0,0,0,0,0,0,0,0,0,0,0.2219,0.222,0.2278,0.2278,0.2278,0.2297,0.2297,0.2298,0.232,0.232,0.232,0.232,0.2352,0.2354,0.2355,0,0,0,0,0,0,0,0,0,0,0,0,0,0.2245,0.2221,0.2278,0.2288,0.2289,0.2297,0.2297,0.2298,0.232,0.232,0.232,0.232,0.2352,0.2353,0.2355,0.2362,0,0,0.2359,0.2359,0,0,0,0,0,0,0,0,0.2244,0.2248,0.2287,0.2288,0.2289,0.2303,0.2288,0.2319,0.232,0.2312,0.232,0.232,0.2335,0.2338,0.2346,0.2364,0.2365,0.2359,0.236,0.236,0.236,0,0,0,0,0,0,0,0.2242,0.2247,0.2289,0.2287,0.2288,0.2278,0.2282,0.2294,0.2326,0.2312,0.2313,0.231,0.2336,0.2345,0.2347,0.2366,0.2359,0.236,0.2361,0.2361,0.2427,0.2428,0,0,0,0,0,0,0.2235,0.2246,0.2288,0.2289,0.2262,0.2279,0.2284,0.2301,0.2326,0.2328,0.231,0.2311,0.2343,0.2345,0.2348,0.2452,0.236,0.2361,0.2362,0.2426,0.2427,0.2429,0,0,0,0,0,0,0.2234,0.224,0.2287,0.2263,0.2268,0.228,0.2299,0.2301,0.2321,0.2323,0.2327,0.2328,0.2343,0.2346,0.237,0.245,0.2362,0.2363,0.2425,0.2427,0.2428,0.26,0,0,0,0,0,0,0.2233,0.224,0.2252,0.2264,0.2269,0.231,0.2298,0.2302,0.2317,0.2319,0.2339,0.2342,0.2343,0.2368,0.2371,0.245,0.2364,0.2424,0.2426,0.2428,0.2593,0.2607,0.2619,0,0,0,0,0,0.2231,0.224,0.2254,0.2258,0.2287,0.231,0.2314,0.2322,0.2318,0.2338,0.2344,0.2342,0.2382,0.2369,0.2373,0.2455,0.2423,0.2425,0.2427,0.2587,0.2604,0.2619,0,0,0,0,0,0,0.2221,0.2243,0.2258,0.2275,0.2302,0.2313,0.2323,0.233,0.235,0.2352,0.2352,0.2356,0.2405,0.2387,0.2373,0.247,0.2403,0.2406,0.2523,0.2539,0.2552,0.2565,0.2365,0,0,0,0,0,0.2225,0.2243,0.2267,0.2286,0.2299,0.2316,0.2325,0.2337,0.2351,0.2361,0.2375,0.2386,0.2414,0.2441,0.2444,0.2502,0.2505,0.2551,0.2564,0.2576,0.2584,0.2638,0.2659,0.2436,0.2436,0.2436,0,0,0.2226,0.224,0.2252,0.2285,0.2305,0.2343,0.2324,0.2348,0.2404,0.236,0.2431,0.2424,0.243,0.2497,0.2519,0.25,0.2647,0.2579,0.259,0.2591,0.2643,0.2665,0.2685,0.2437,0.2437,0.2437,0,0,0.2239,0.2256,0.228,0.2312,0.2344,0.2358,0.237,0.2399,0.244,0.2481,0.2483,0.2523,0.254,0.2598,0.2619,0.27,0.2699,0.2696,0.2805,0.2859,0.2879,0.2897,0.2967,0.2989,0.2724,0.2724,0.2724,0,0.2236,0.2295,0.2291,0.2333,0.2378,0.2372,0.2434,0.2468,0.2506,0.2549,0.2514,0.2578,0.2598,0.2716,0.2759,0.2741,0.276,0.276,0.2882,0.2899,0.2914,0.2982,0.3004,0.2733,0.2732,0.2731,0.273,0,0.2275,0.2341,0.236,0.2424,0.2457,0.2513,0.2559,0.26,0.262,0.2648,0.2733,0.275,0.279,0.2823,0.2826,0.2963,0.294,0.2884,0.2857,0.2948,0.3012,0.3033,0.2745,0.2742,0.2739,0.2737,0,0,0.2246,0.2368,0.2383,0.2451,0.2531,0.2554,0.2653,0.2742,0.2794,0.2827,0.2916,0.2994,0.2979,0.3001,0.3024,0.3098,0.3256,0.3055,0.3054,0.3152,0.3394,0.3283,0.3294,0.3222,0.3226,0.3229,0.3412,0,0.2302,0.2414,0.2464,0.2584,0.266,0.2709,0.279,0.2855,0.2901,0.2969,0.3024,0.3084,0.3059,0.3093,0.3166,0.3225,0.3309,0.3212,0.3266,0.3268,0.318,0.3313,0.3032,0.3161,0.3432,0.3435,0.3438,0,0.2363,0.2426,0.2566,0.2703,0.2734,0.2782,0.2901,0.2976,0.3069,0.3108,0.3172,0.3181,0.333,0.3255,0.3424,0.336,0.3395,0.3426,0.3432,0.3276,0.3193,0.3101,0.3187,0.3471,0.3468,0.3466,0.3464,0,0.2383,0.2523,0.2642,0.2691,0.2806,0.2867,0.2917,0.3008,0.3088,0.3199,0.3251,0.3354,0.3433,0.3488,0.3549,0.3504,0.3696,0.3633,0.3568,0.3562,0.3304,0.3267,0.3735,0.3735,0.3734,0.3734,0.3733,0,0.2468,0.2557,0.2647,0.2705,0.2794,0.2872,0.2972,0.3035,0.3145,0.3243,0.3315,0.3412,0.3491,0.3588,0.3612,0.3666,0.3748,0.3622,0.3609,0.3356,0.3323,0.3548,0.3524,0.3741,0.3739,0.3738,0.3737,0,0.2498,0.2586,0.2696,0.2794,0.2822,0.287,0.2987,0.3053,0.3165,0.3305,0.3355,0.3506,0.3639,0.3693,0.3811,0.3756,0.3805,0.3789,0.3496,0.3444,0.3629,0.3612,0.3771,0.3769,0.3767,0.3765,0.3764,0,0.2539,0.2599,0.2709,0.2752,0.2797,0.2875,0.2936,0.3049,0.3121,0.3359,0.3421,0.3601,0.3655,0.378,0.3745,0.3762,0.3818,0.3499,0.335,0.3666,0.3638,0.3623,0.3608,0.3106,0.31,0.3095,0.309,0,0.2571,0.2606,0.2672,0.2744,0.2812,0.2871,0.2956,0.3013,0.3172,0.3277,0.3423,0.3487,0.3613,0.3479,0.3488,0.3458,0.3466,0.3388,0.3822,0.3116,0.3047,0.3016,0.3022,0.3042,0.3047,0.305,0.3053,0.3055,0.2559,0.2586,0.2667,0.2719,0.28,0.2836,0.2829,0.2924,0.2998,0.3064,0.324,0.322,0.3253,0.3104,0.3038,0.3016,0.3236,0.308,0.3094,0.3115,0.298,0.2908,0.2856,0.2859,0.2862,0.2865,0.2867,0,0.2512,0.2561,0.2628,0.2675,0.2702,0.2777,0.2816,0.2703,0.2708,0.2858,0.2866,0.2612,0.2531,0.2609,0.2494,0.249,0.2447,0.2402,0.2316,0.2367,0.2411,0.2237,0.1918,0.1915,0.1912,0.1909,0,0,0.249,0.2524,0.2544,0.2556,0.2592,0.2539,0.252,0.2354,0.2346,0.2253,0.2266,0.2365,0.2521,0.2167,0.2137,0.2019,0.2177,0.195,0.2717,0.2668,0.2708,0.2815,0.2606,0,0,0,0,0]},{"header":{"parameterUnit":"m.s-1","parameterCategory":2,"la1":30.2991,"la2":30.254,"lo1":-89.0895,"lo2":-89.0444,"dy":0.0017,"dx":0.0017,"nx":28,"ny":28,"refTime":"2024-04-14T03:00:00:Z","depth":"2","parameterNumber":3,"parameterNumberName":"V-component_of_CURRENTS"},"data":[0,0,0,0,0,0,0,0,0,0,0,0,0,0,0,0,0,0,0,0,0,0,0,0,0,0,0,0,0,0,0,0,0,0,0,0,0,0,0,0,0,0,0,0,0,0,0,0,0,0,0,0,0,0,0,0,0,0,-0.0074,-0.0075,0,-0.013,-0.0131,-0.0132,-0.0169,-0.0169,-0.0169,-0.0169,-0.0263,-0.0265,-0.0268,0,0,0,0,0,0,0,0,0,0,0,0,0,-0.005,-0.005,-0.0074,-0.0075,-0.0075,-0.013,-0.0131,-0.0132,-0.0169,-0.0169,-0.0169,-0.0169,-0.0262,-0.0265,-0.0268,0,0,0,0,0,0,0,0,0,0,0,0,0,-0.008,-0.005,-0.0074,-0.0099,-0.0102,-0.013,-0.0131,-0.0132,-0.0169,-0.0169,-0.0169,-0.0169,-0.0261,-0.0265,-0.0268,-0.0288,0,0,-0.0279,-0.0281,0,0,0,0,0,0,0,0,-0.0078,-0.0081,-0.0095,-0.0097,-0.01,-0.0141,-0.0157,-0.0185,-0.0169,-0.0145,-0.0169,-0.0169,-0.0224,-0.0231,-0.0243,-0.0292,-0.0296,-0.028,-0.0282,-0.0283,-0.0284,0,0,0,0,0,0,0,-0.0076,-0.0079,-0.0098,-0.0095,-0.0099,-0.0125,-0.0129,-0.0163,-0.0186,-0.0147,-0.015,-0.0153,-0.0226,-0.024,-0.0246,-0.0298,-0.028,-0.0283,-0.0285,-0.0286,-0.0381,-0.0381,0,0,0,0,0,0,-0.0063,-0.0077,-0.0096,-0.01,-0.0087,-0.0124,-0.0129,-0.0129,-0.0184,-0.0192,-0.0153,-0.0155,-0.0234,-0.0242,-0.0249,-0.0292,-0.0283,-0.0287,-0.0289,-0.0381,-0.0381,-0.0381,0,0,0,0,0,0,-0.0062,-0.0064,-0.0094,-0.0088,-0.0094,-0.0124,-0.0124,-0.013,-0.014,-0.0188,-0.0197,-0.0156,-0.0234,-0.0244,-0.0274,-0.0295,-0.0288,-0.0292,-0.038,-0.0381,-0.0381,-0.0366,0,0,0,0,0,0,-0.0061,-0.0063,-0.006,-0.0087,-0.0093,-0.0104,-0.0124,-0.0131,-0.0141,-0.0144,-0.0193,-0.0202,-0.0235,-0.0268,-0.0278,-0.03,-0.0294,-0.038,-0.038,-0.0381,-0.0366,-0.0366,-0.0366,0,0,0,0,0,-0.006,-0.0052,-0.0059,-0.0062,-0.0087,-0.0103,-0.0109,-0.0133,-0.0141,-0.0143,-0.0175,-0.0201,-0.028,-0.0271,-0.0282,-0.0306,-0.0379,-0.038,-0.0381,-0.0366,-0.0366,-0.0366,0,0,0,0,0,0,-0.004,-0.0056,-0.0064,-0.0062,-0.0078,-0.0109,-0.0111,-0.0127,-0.0154,-0.0155,-0.0201,-0.0213,-0.0248,-0.0273,-0.0263,-0.0334,-0.0336,-0.0339,-0.0321,-0.0321,-0.0321,-0.0285,-0.0298,0,0,0,0,0,-0.0032,-0.0031,-0.0052,-0.0049,-0.0054,-0.0081,-0.009,-0.0104,-0.0131,-0.0142,-0.0177,-0.0217,-0.0261,-0.0285,-0.0319,-0.0356,-0.0349,-0.0379,-0.0378,-0.0378,-0.0356,-0.0358,-0.0355,-0.0384,-0.0384,-0.0384,0,0,-0.0023,-0.0032,-0.0031,-0.0045,-0.0058,-0.0066,-0.0087,-0.0093,-0.0108,-0.0149,-0.0176,-0.0213,-0.0267,-0.0309,-0.0329,-0.0334,-0.0369,-0.0379,-0.0379,-0.0356,-0.0358,-0.0355,-0.0353,-0.0385,-0.0384,-0.0384,0,0,-0.0004,-0.001,-0.0004,-0.0019,-0.0033,-0.0048,-0.0046,-0.0073,-0.0091,-0.0117,-0.0159,-0.0199,-0.0256,-0.0306,-0.0338,-0.0355,-0.0363,-0.0374,-0.0354,-0.0357,-0.0354,-0.0351,-0.0343,-0.034,-0.0381,-0.0381,-0.0381,0,0.0007,0.0008,-0.0004,-0.001,-0.0018,-0.0037,-0.0037,-0.0061,-0.0096,-0.0104,-0.0119,-0.0196,-0.0256,-0.0309,-0.0329,-0.0357,-0.0345,-0.0353,-0.0354,-0.0352,-0.0349,-0.0342,-0.0338,-0.038,-0.038,-0.038,-0.038,0,0.0022,0.0019,0.0022,0.001,0.0003,-0.0,-0.0027,-0.0038,-0.0056,-0.0076,-0.0112,-0.018,-0.0216,-0.0265,-0.0311,-0.0336,-0.0329,-0.0348,-0.035,-0.0345,-0.0338,-0.0335,-0.0379,-0.0379,-0.0379,-0.038,0,0,0.0052,0.0036,0.0035,0.0038,0.0011,0.0016,-0.0006,-0.002,-0.0001,-0.0057,-0.0039,-0.0158,-0.0165,-0.0202,-0.0263,-0.0293,-0.0297,-0.0313,-0.0313,-0.0295,-0.0282,-0.0329,-0.033,-0.0308,-0.0307,-0.0307,-0.0285,0,0.0065,0.0068,0.0052,0.0061,0.0064,0.0039,0.0035,0.002,0.0015,0.0031,-0.0046,-0.0045,-0.015,-0.0147,-0.0202,-0.0253,-0.0285,-0.03,-0.0296,-0.0296,-0.0331,-0.0328,-0.0307,-0.029,-0.0282,-0.0281,-0.0281,0,0.008,0.0082,0.0092,0.0101,0.0104,0.0115,0.0137,0.0133,0.0133,0.0135,0.0115,0.009,0.003,-0.0038,-0.0134,-0.0129,-0.0203,-0.0256,-0.0257,-0.0297,-0.0337,-0.0294,-0.0284,-0.0275,-0.0276,-0.0276,-0.0277,0,0.0116,0.0113,0.013,0.0124,0.013,0.0147,0.0165,0.0174,0.0215,0.0235,0.03,0.0212,0.0229,0.0112,-0.0033,-0.006,-0.0114,-0.0162,-0.0277,-0.0281,-0.026,-0.0264,-0.022,-0.022,-0.022,-0.022,-0.022,0,0.0131,0.0147,0.0159,0.0168,0.0228,0.0212,0.0299,0.03,0.036,0.0462,0.0382,0.0451,0.0275,0.0214,0.0046,-0.0099,-0.0055,-0.0258,-0.0277,-0.0258,-0.0261,-0.0246,-0.025,-0.0219,-0.0219,-0.0219,-0.0219,0,0.0168,0.0161,0.02,0.0227,0.0249,0.0305,0.0409,0.0487,0.0523,0.0668,0.0696,0.0662,0.0581,0.0382,0.0215,0.0035,-0.0122,-0.0192,-0.0159,-0.0177,-0.0303,-0.0306,-0.0294,-0.0295,-0.0296,-0.0297,-0.0298,0,0.0188,0.02,0.0266,0.0325,0.035,0.0438,0.052,0.0568,0.0667,0.0806,0.0888,0.0862,0.0821,0.0534,0.0233,-0.0052,-0.0101,-0.0216,-0.0295,-0.029,-0.031,-0.0311,-0.0312,-0.0255,-0.0255,-0.0256,-0.0256,0,0.0237,0.0262,0.0312,0.0422,0.052,0.0627,0.0744,0.0835,0.0936,0.1052,0.1164,0.1142,0.0892,0.059,0.0194,-0.0004,-0.0179,-0.0234,-0.0204,-0.0258,-0.0257,-0.0276,-0.0277,-0.0259,-0.0259,-0.0259,-0.0258,-0.0258,0.0296,0.0348,0.0423,0.0522,0.0653,0.0788,0.0863,0.1007,0.1154,0.1309,0.1307,0.1287,0.0975,0.0447,0.0123,-0.0196,-0.0199,-0.0328,-0.0324,-0.0321,-0.0339,-0.0343,-0.0363,-0.0363,-0.0363,-0.0363,-0.0363,0,0.0354,0.0409,0.0515,0.0633,0.0762,0.0831,0.0993,0.1069,0.1226,0.1405,0.1456,0.1174,0.0831,0.0498,0.0014,-0.0306,-0.0324,-0.0389,-0.0341,-0.0337,-0.0333,-0.035,-0.0377,-0.0378,-0.0379,-0.0379,0,0,0.0392,0.0481,0.0511,0.0688,0.0789,0.0949,0.1028,0.1175,0.1296,0.1421,0.1452,0.1368,0.0952,0.0602,0.0181,-0.0084,-0.0133,-0.0138,-0.0098,0.0012,0.002,-0.0275,-0.0294,0,0,0,0,0]}],[{"header":{"parameterUnit":"m.s-1","parameterCategory":2,"la1":30.2991,"la2":30.254,"lo1":-89.0895,"lo2":-89.0444,"dy":0.0017,"dx":0.0017,"nx":28,"ny":28,"refTime":"2024-04-14T03:00:00:Z","depth":"4","parameterNumber":2,"parameterNumberName":"U-component_of_CURRENTS"},"data":[0,0,0,0,0,0,0,0,0,0,0,0,0,0,0,0,0,0,0,0,0,0,0,0,0,0,0,0,0,0,0,0,0,0,0,0,0,0,0,0,0,0,0,0,0,0,0,0,0,0,0,0,0,0,0,0,0,0,0.126,0.1261,0,0.1315,0.1315,0.1316,0.136,0.1361,0.1362,0.1363,0.1402,0.1402,0.1402,0,0,0,0,0,0,0,0,0,0,0,0,0,0.1164,0.1165,0.126,0.1261,0.1262,0.1315,0.1315,0.1316,0.136,0.1361,0.1363,0.1364,0.1402,0.1402,0.1402,0,0,0,0,0,0,0,0,0,0,0,0,0,0.1205,0.1166,0.126,0.1296,0.13,0.1315,0.1315,0.1316,0.136,0.1361,0.1363,0.1364,0.1402,0.1402,0.1402,0.1371,0,0,0.1402,0.1402,0,0,0,0,0,0,0,0,0.1203,0.1208,0.1289,0.1293,0.1298,0.1338,0.1296,0.1336,0.1359,0.133,0.1363,0.1365,0.1382,0.1384,0.1382,0.1373,0.1375,0.1402,0.1402,0.1402,0.1402,0,0,0,0,0,0,0,0.12,0.1206,0.1275,0.129,0.1296,0.13,0.1307,0.1303,0.1341,0.1333,0.1338,0.1354,0.1383,0.1382,0.1383,0.1375,0.1402,0.1402,0.1402,0.1402,0.144,0.1441,0,0,0,0,0,0,0.1206,0.1203,0.1274,0.1278,0.126,0.1301,0.1308,0.1318,0.1342,0.1349,0.1352,0.1356,0.1381,0.1383,0.1385,0.1418,0.1402,0.1402,0.1402,0.1439,0.144,0.1441,0,0,0,0,0,0,0.1203,0.1211,0.1272,0.1247,0.1256,0.1302,0.1312,0.1319,0.135,0.1358,0.1364,0.1381,0.1382,0.1385,0.1411,0.1417,0.1402,0.1402,0.1438,0.1439,0.144,0.144,0,0,0,0,0,0,0.12,0.1209,0.1228,0.1247,0.1258,0.1288,0.1311,0.1319,0.1358,0.1364,0.1383,0.1387,0.1383,0.141,0.1411,0.1417,0.1402,0.1436,0.1438,0.144,0.1439,0.1441,0.1443,0,0,0,0,0,0.1196,0.1208,0.1228,0.1237,0.1278,0.1289,0.1293,0.1327,0.1358,0.1362,0.1391,0.1388,0.1422,0.1411,0.1411,0.1417,0.1436,0.1438,0.144,0.1438,0.1441,0.1443,0,0,0,0,0,0,0.1173,0.1215,0.1237,0.1262,0.1281,0.1299,0.1316,0.1341,0.1366,0.1387,0.1395,0.1399,0.1426,0.1425,0.1413,0.1437,0.143,0.1432,0.1429,0.1431,0.1433,0.1442,0.1403,0,0,0,0,0,0.1178,0.12,0.1232,0.1252,0.1265,0.1296,0.1313,0.1338,0.1361,0.1376,0.1394,0.1416,0.1427,0.1435,0.1444,0.145,0.1498,0.1458,0.146,0.1462,0.1471,0.157,0.1583,0.1448,0.1448,0.1448,0,0,0.1174,0.1203,0.1215,0.125,0.127,0.1266,0.1309,0.134,0.1352,0.1374,0.1403,0.1426,0.1433,0.1446,0.1457,0.1449,0.1525,0.1465,0.1466,0.1474,0.1574,0.1587,0.1599,0.1449,0.1449,0.1449,0,0,0.1153,0.1203,0.1203,0.1211,0.1252,0.1273,0.1288,0.1325,0.1363,0.1391,0.1414,0.1453,0.1461,0.1472,0.1476,0.1498,0.1537,0.1499,0.1509,0.1605,0.1618,0.1629,0.1703,0.1721,0.1495,0.1495,0.1495,0,0.1152,0.1153,0.1203,0.119,0.1206,0.1273,0.1267,0.1298,0.1344,0.1387,0.1405,0.1467,0.1474,0.1496,0.1502,0.1502,0.1563,0.1493,0.161,0.1622,0.1634,0.1707,0.1726,0.1495,0.1495,0.1495,0.1495,0,0.1108,0.1114,0.1114,0.1125,0.1147,0.1158,0.121,0.1261,0.133,0.1367,0.1442,0.1469,0.1518,0.1513,0.151,0.1583,0.1601,0.1605,0.1602,0.1647,0.1721,0.1742,0.1496,0.1495,0.1495,0.1495,0,0,0.1086,0.1088,0.1086,0.1087,0.1123,0.1139,0.1185,0.1251,0.1317,0.1371,0.1449,0.1471,0.1533,0.1543,0.1559,0.162,0.1745,0.1647,0.1652,0.1719,0.1961,0.1787,0.1793,0.1781,0.1785,0.1788,0.1977,0,0.104,0.0998,0.103,0.1015,0.0999,0.1089,0.1121,0.1198,0.1302,0.1393,0.1464,0.1548,0.1529,0.1592,0.1641,0.1748,0.1801,0.1693,0.1908,0.1914,0.1754,0.1812,0.18,0.1993,0.1998,0.2001,0.2004,0,0.0967,0.096,0.0928,0.097,0.0982,0.1006,0.1134,0.1185,0.1326,0.1405,0.1509,0.1601,0.1715,0.1698,0.1885,0.1828,0.189,0.1945,0.1954,0.1807,0.1779,0.1941,0.2042,0.2039,0.2036,0.2033,0.2031,0,0.0893,0.0893,0.0881,0.088,0.0931,0.0993,0.1068,0.1201,0.129,0.1469,0.1573,0.1695,0.1817,0.1923,0.2038,0.2009,0.2225,0.221,0.2094,0.2084,0.2185,0.2171,0.232,0.232,0.232,0.2319,0.2319,0,0.0811,0.0797,0.0857,0.0842,0.0883,0.096,0.1078,0.116,0.1326,0.1432,0.1601,0.1708,0.1891,0.2034,0.2095,0.2157,0.229,0.2109,0.2125,0.2178,0.2161,0.22,0.2183,0.2326,0.2325,0.2323,0.2322,0,0.0698,0.0726,0.0719,0.0799,0.0835,0.0884,0.1074,0.1171,0.1336,0.1497,0.1579,0.1789,0.1982,0.2114,0.2301,0.2237,0.2316,0.2284,0.2336,0.2349,0.21,0.2081,0.222,0.2216,0.2212,0.2209,0.2206,0,0.0622,0.0595,0.0674,0.0699,0.075,0.0861,0.0945,0.1136,0.1242,0.1523,0.1573,0.1839,0.1961,0.21,0.2211,0.2322,0.2269,0.2293,0.2174,0.209,0.2093,0.208,0.2067,0.22,0.2199,0.2198,0.2197,0,0.0485,0.0529,0.055,0.0596,0.069,0.078,0.0922,0.0996,0.1233,0.1406,0.1575,0.172,0.1892,0.202,0.2102,0.216,0.2284,0.2253,0.226,0.2149,0.2068,0.2071,0.2063,0.2184,0.2186,0.2187,0.2188,0,0.0408,0.0405,0.0452,0.0498,0.0597,0.0677,0.0777,0.0932,0.107,0.1374,0.1418,0.1682,0.1864,0.1935,0.2015,0.2061,0.2035,0.1965,0.1987,0.2002,0.1836,0.1695,0.1724,0,0,0,0,0,0.0332,0.0332,0.0347,0.0417,0.0513,0.0575,0.074,0.0858,0.1106,0.1185,0.1301,0.1462,0.1633,0.1748,0.1758,0.1901,0.2019,0.1899,0.1941,0.2111,0.2126,0.1945,0,0,0,0,0,0,0.0285,0.0302,0.0313,0.0341,0.0379,0.0492,0.0608,0.0763,0.0815,0.1058,0.1162,0.1338,0.1519,0.1609,0.1717,0.1751,0.174,0.2043,0.2038,0.2102,0.2116,0.2128,0.1948,0,0,0,0,0]},{"header":{"parameterUnit":"m.s-1","parameterCategory":2,"la1":30.2991,"la2":30.254,"lo1":-89.0895,"lo2":-89.0444,"dy":0.0017,"dx":0.0017,"nx":28,"ny":28,"refTime":"2024-04-14T03:00:00:Z","depth":"4","parameterNumber":3,"parameterNumberName":"V-component_of_CURRENTS"},"data":[0,0,0,0,0,0,0,0,0,0,0,0,0,0,0,0,0,0,0,0,0,0,0,0,0,0,0,0,0,0,0,0,0,0,0,0,0,0,0,0,0,0,0,0,0,0,0,0,0,0,0,0,0,0,0,0,0,0,-0.0057,-0.0057,0,-0.0087,-0.0087,-0.0088,-0.0115,-0.0115,-0.0116,-0.0116,-0.0173,-0.0175,-0.0176,0,0,0,0,0,0,0,0,0,0,0,0,0,-0.005,-0.005,-0.0057,-0.0057,-0.0057,-0.0087,-0.0087,-0.0088,-0.0115,-0.0115,-0.0116,-0.0116,-0.0173,-0.0175,-0.0176,0,0,0,0,0,0,0,0,0,0,0,0,0,-0.0065,-0.005,-0.0057,-0.0073,-0.0075,-0.0086,-0.0087,-0.0088,-0.0115,-0.0116,-0.0116,-0.0116,-0.0172,-0.0174,-0.0176,-0.0183,0,0,-0.0183,-0.0184,0,0,0,0,0,0,0,0,-0.0064,-0.0066,-0.007,-0.0072,-0.0074,-0.0096,-0.0106,-0.0121,-0.0115,-0.0102,-0.0116,-0.0116,-0.0149,-0.0153,-0.016,-0.0186,-0.0189,-0.0183,-0.0184,-0.0185,-0.0186,0,0,0,0,0,0,0,-0.0063,-0.0065,-0.007,-0.0071,-0.0073,-0.0088,-0.0091,-0.0109,-0.0125,-0.0103,-0.0104,-0.0105,-0.015,-0.0158,-0.0161,-0.0189,-0.0183,-0.0185,-0.0186,-0.0187,-0.02,-0.0199,0,0,0,0,0,0,-0.0054,-0.0063,-0.0069,-0.0071,-0.0068,-0.0088,-0.0091,-0.009,-0.0124,-0.0129,-0.0105,-0.0106,-0.0154,-0.0159,-0.0164,-0.0133,-0.0185,-0.0187,-0.0188,-0.02,-0.0199,-0.0198,0,0,0,0,0,0,-0.0054,-0.0055,-0.0068,-0.0067,-0.0069,-0.0087,-0.0087,-0.009,-0.0098,-0.0125,-0.0131,-0.0108,-0.0155,-0.0161,-0.017,-0.0137,-0.0188,-0.019,-0.0201,-0.02,-0.0199,-0.0098,0,0,0,0,0,0,-0.0054,-0.0054,-0.0054,-0.0066,-0.0069,-0.0067,-0.0086,-0.0091,-0.0097,-0.0099,-0.013,-0.0136,-0.0155,-0.0167,-0.0172,-0.0141,-0.0191,-0.0203,-0.0201,-0.0199,-0.0102,-0.0093,-0.0086,0,0,0,0,0,-0.0054,-0.0048,-0.0054,-0.0055,-0.0067,-0.0067,-0.0069,-0.0085,-0.0097,-0.0094,-0.0112,-0.0135,-0.016,-0.0168,-0.0174,-0.0143,-0.0203,-0.0201,-0.0199,-0.0106,-0.0095,-0.0086,0,0,0,0,0,0,-0.0047,-0.005,-0.0057,-0.0054,-0.0057,-0.007,-0.0071,-0.0082,-0.0095,-0.0099,-0.0128,-0.0134,-0.0129,-0.0155,-0.0163,-0.0143,-0.0184,-0.0183,-0.0111,-0.0101,-0.0092,-0.006,-0.0193,0,0,0,0,0,-0.0044,-0.004,-0.0046,-0.0044,-0.0043,-0.0058,-0.0062,-0.0069,-0.008,-0.0087,-0.0103,-0.0121,-0.0126,-0.0129,-0.0145,-0.0137,-0.0189,-0.0121,-0.0112,-0.0105,-0.0084,-0.0155,-0.0151,-0.0192,-0.0192,-0.0192,0,0,-0.004,-0.0042,-0.0041,-0.0042,-0.0048,-0.0022,-0.0061,-0.006,-0.0031,-0.0091,-0.0065,-0.0096,-0.0119,-0.0104,-0.0104,-0.0121,-0.0122,-0.0102,-0.0095,-0.0078,-0.0152,-0.0148,-0.0145,-0.0191,-0.0191,-0.0191,0,0,-0.0017,-0.0032,-0.0014,-0.0004,-0.0004,-0.0007,-0.0003,-0.001,-0.0008,0.0001,-0.0023,-0.0029,-0.005,-0.0043,-0.0047,-0.0004,-0.0079,-0.0017,0.0059,-0.001,-0.0007,-0.0005,-0.0071,-0.0076,-0.0007,-0.0007,-0.0007,0,-0.0013,0.0021,-0.0009,0.0024,0.0048,0.0009,0.0055,0.0052,0.0046,0.0054,0.0021,0.0007,-0.0012,0.0024,0.0048,0.002,-0.0044,0.0026,0.0001,0.0002,0.0002,-0.0066,-0.0073,-0.0002,-0.0003,-0.0003,-0.0004,0,0.0037,0.0072,0.0085,0.0122,0.0135,0.0165,0.0168,0.0172,0.0157,0.0154,0.0162,0.0126,0.0115,0.0115,0.01,0.0111,0.0057,0.0015,-0.0022,0.0013,-0.0062,-0.0071,0.0005,0.0003,0.0002,0.0001,0,0,0.0043,0.0111,0.012,0.0168,0.0199,0.0216,0.0259,0.0289,0.0302,0.0285,0.0297,0.031,0.0261,0.0256,0.0224,0.019,0.0143,0.0114,0.0108,0.0054,-0.0024,-0.0022,-0.0032,0.0078,0.0077,0.0076,-0.0078,0,0.0103,0.0198,0.0213,0.0309,0.0365,0.0359,0.0401,0.0413,0.0392,0.0381,0.0351,0.0339,0.0323,0.0299,0.0269,0.0159,0.0124,0.0188,-0.0053,-0.0059,-0.0058,-0.004,0.0074,-0.0085,-0.0087,-0.0089,-0.009,0,0.0161,0.0224,0.0336,0.0423,0.0442,0.0488,0.0528,0.0554,0.053,0.0501,0.0477,0.0418,0.0393,0.0341,0.0207,0.0236,0.0132,0.005,0.004,0.0006,-0.0072,-0.0128,-0.0107,-0.0105,-0.0104,-0.0103,-0.0102,0,0.0205,0.0312,0.041,0.0446,0.0527,0.0569,0.0596,0.0597,0.06,0.0563,0.0523,0.0475,0.0408,0.0296,0.0149,0.0153,-0.0038,-0.0069,-0.0154,-0.0157,-0.0159,-0.016,-0.0161,-0.0161,-0.016,-0.016,-0.016,0,0.0282,0.0359,0.044,0.0502,0.0583,0.0622,0.0676,0.0674,0.0655,0.0642,0.0582,0.0528,0.0385,0.0258,0.014,-0.0032,-0.0055,-0.0128,-0.019,-0.0114,-0.0108,-0.0167,-0.0165,-0.0166,-0.0165,-0.0163,-0.0162,0,0.0321,0.0387,0.0488,0.0586,0.0613,0.0663,0.0712,0.0727,0.0709,0.0674,0.0656,0.0535,0.0376,0.0237,0.0022,-0.0057,-0.0213,-0.0266,-0.0169,-0.0226,-0.0285,-0.0277,-0.038,-0.0381,-0.0382,-0.0383,-0.0383,0,0.0358,0.0418,0.0522,0.0561,0.0611,0.0684,0.0719,0.0743,0.0744,0.0672,0.064,0.0494,0.0404,0.0118,-0.0034,-0.0251,-0.027,-0.035,-0.0291,-0.0255,-0.0305,-0.0295,-0.0286,-0.0385,-0.0385,-0.0385,-0.0385,0,0.0399,0.0424,0.0492,0.0573,0.0631,0.0694,0.0747,0.0748,0.0752,0.073,0.0622,0.0485,0.0299,0.0106,-0.0059,-0.0213,-0.0295,-0.036,-0.0359,-0.0304,-0.0262,-0.0309,-0.0298,-0.0389,-0.0388,-0.0388,-0.0388,0,0.0396,0.0428,0.0499,0.0567,0.0639,0.0694,0.0723,0.0734,0.074,0.0677,0.0628,0.0454,0.0348,0.012,-0.0041,-0.0179,-0.0208,-0.0239,-0.0244,-0.0243,-0.014,-0.0063,-0.0172,0,0,0,0,0,0.0392,0.043,0.0486,0.057,0.0639,0.0687,0.0736,0.0755,0.0757,0.0693,0.0672,0.0512,0.027,0.0149,0.0012,-0.0066,-0.024,-0.0232,-0.0279,-0.0406,-0.0402,-0.0303,0,0,0,0,0,0,0.0389,0.0443,0.0481,0.0565,0.0618,0.0697,0.0734,0.0729,0.0701,0.0675,0.055,0.0488,0.0253,0.0357,0.0013,-0.0034,-0.0081,-0.0345,-0.0348,-0.0408,-0.0405,-0.0402,-0.0298,0,0,0,0,0]}]]